Weather History for KCAD - July, 2013

Change the Weather History Date:

Tuesday, July 23, 2013

  Actual Average Record
Temperature  
Mean Temperature 63 °F -  
Max Temperature 74 °F 79 °F 96 °F (2012)
Min Temperature 51 °F 54 °F 33 °F (1985)
Degree Days  
Heating Degree Days 2    
Growing Degree Days 13 (Base 50)    
Moisture  
Dew Point 54 °F    
Average Humidity 70    
Maximum Humidity 88    
Minimum Humidity 53    
Precipitation  
Precipitation 0.00 in - - ()
Sea Level Pressure  
Sea Level Pressure 29.79 in    
Wind  
Wind Speed 9 mph (NW)    
Max Wind Speed 23 mph    
Max Gust Speed 31 mph    
Visibility 10 miles    
Events Rain    
Averages and records for this station are not official NWS values.
T = Trace of Precipitation, MM = Missing Value Source: NWS Daily Summary

Daily Weather History Graph

Daily Weather History Graph

Search for Another Location

Airport or City:

Trip Planner

Search our weather history database for the weather conditions in past years. The results will help you decide how hot, cold, wet, or windy it might be!

Date:

Astronomy

Jul. 23, 2013 Rise Set
Actual Time 6:19 AM EDT 9:15 PM EDT
Civil Twilight 5:45 AM EDT 9:50 PM EDT
Nautical Twilight 5:01 AM EDT 10:33 PM EDT
Astronomical Twilight 4:10 AM EDT 11:24 PM EDT
Moon 9:37 PM EDT (7/23) 7:32 AM EDT (7/23)
Length of Visible Light 16h 04m
Length of Day
14h 56m
Full, 99% of the Moon is Illuminated
Jul 23
Full
Jul 29
Last Quarter
Aug 6
New
Aug 14
First Quarter
Aug 20
Full

Hourly Weather History & Observations

Time (EDT) Temp. Dew Point Humidity Pressure Visibility Wind Dir Wind Speed Gust Speed Precip Events Conditions
12:14 AM 72.1 °F 62.2 °F 71% 29.73 in 10.0 mi SSW 9.2 mph 18.4 mph N/A   Scattered Clouds
12:34 AM 71.8 °F 61.7 °F 70% 29.72 in 10.0 mi South 8.1 mph - N/A   Scattered Clouds
12:55 AM 71.6 °F 62.1 °F 72% 29.69 in 10.0 mi South 10.4 mph - N/A   Clear
1:14 AM 71.6 °F 61.9 °F 71% 29.68 in 10.0 mi South 9.2 mph 19.6 mph N/A   Clear
1:35 AM 71.6 °F 62.6 °F 73% 29.70 in 10.0 mi SSW 9.2 mph - N/A   Clear
1:55 AM 71.6 °F 62.2 °F 72% 29.71 in 10.0 mi Calm Calm - N/A   Scattered Clouds
2:14 AM 71.6 °F 62.2 °F 72% 29.70 in 10.0 mi Calm Calm - N/A   Mostly Cloudy
2:35 AM 74.3 °F 63.9 °F 70% 29.68 in 10.0 mi South 9.2 mph - N/A   Overcast
2:55 AM 74.3 °F 64.6 °F 72% 29.69 in 10.0 mi SSW 5.8 mph - N/A   Overcast
3:14 AM 74.3 °F 64.9 °F 72% 29.69 in 10.0 mi SSW 8.1 mph - N/A   Overcast
3:35 AM 72.5 °F 64.4 °F 76% 29.68 in 10.0 mi SSW 6.9 mph - N/A   Mostly Cloudy
3:55 AM 72.0 °F 65.7 °F 80% 29.69 in 10.0 mi WNW 5.8 mph - N/A Rain Light Rain
4:14 AM 71.6 °F 67.5 °F 87% 29.70 in 10.0 mi Calm Calm - N/A Rain Light Rain
4:35 AM 71.6 °F 68.0 °F 88% 29.69 in 10.0 mi South 9.2 mph - N/A   Overcast
4:55 AM 71.6 °F 67.6 °F 87% 29.68 in 10.0 mi Calm Calm - N/A   Overcast
5:14 AM 69.1 °F 64.9 °F 87% 29.69 in 10.0 mi SW 4.6 mph - N/A   Overcast
5:35 AM 69.1 °F 65.3 °F 88% 29.71 in 10.0 mi Calm Calm - N/A   Overcast
5:55 AM 69.1 °F 65.3 °F 88% 29.71 in 10.0 mi WSW 4.6 mph - N/A   Overcast
6:14 AM 71.6 °F 67.8 °F 88% 29.70 in 7.0 mi NNW 15.0 mph 20.7 mph N/A   Overcast
6:35 AM 64.4 °F 59.9 °F 85% 29.70 in 10.0 mi North 9.2 mph - N/A Rain Light Rain
6:54 AM 64.0 °F 59.9 °F 86% 29.70 in 10.0 mi NNW 6.9 mph - N/A   Overcast
7:14 AM 64.0 °F 59.9 °F 86% 29.71 in 10.0 mi NNW 5.8 mph - N/A   Mostly Cloudy
7:35 AM 64.0 °F 59.5 °F 85% 29.71 in 10.0 mi NNW 5.8 mph - N/A   Mostly Cloudy
7:54 AM 64.0 °F 59.4 °F 85% 29.71 in 10.0 mi NNW 5.8 mph - N/A   Scattered Clouds
8:14 AM 64.0 °F 59.2 °F 84% 29.72 in 10.0 mi NNW 5.8 mph - N/A   Clear
8:35 AM 64.0 °F 58.1 °F 81% 29.72 in 10.0 mi NNW 6.9 mph - N/A   Clear
8:54 AM 64.6 °F 57.2 °F 77% 29.73 in 10.0 mi North 9.2 mph 16.1 mph N/A   Scattered Clouds
9:14 AM 65.3 °F 57.2 °F 75% 29.73 in 10.0 mi NNW 9.2 mph 17.3 mph N/A   Mostly Cloudy
9:35 AM 66.6 °F 57.0 °F 71% 29.73 in 10.0 mi NNW 13.8 mph 19.6 mph N/A   Mostly Cloudy
9:54 AM 67.6 °F 56.3 °F 67% 29.74 in 10.0 mi NW 12.7 mph 21.9 mph N/A   Mostly Cloudy
10:14 AM 66.6 °F 55.8 °F 68% 29.74 in 10.0 mi NNW 10.4 mph 18.4 mph N/A   Overcast
10:35 AM 65.8 °F 55.2 °F 69% 29.74 in 10.0 mi NNW 10.4 mph 19.6 mph N/A   Overcast
10:54 AM 65.3 °F 54.5 °F 68% 29.77 in 10.0 mi NNW 9.2 mph - N/A   Overcast
11:15 AM 64.4 °F 54.3 °F 70% 29.78 in 10.0 mi NNW 10.4 mph - N/A   Overcast
11:35 AM 64.4 °F 53.2 °F 67% 29.79 in 10.0 mi NNW 11.5 mph 17.3 mph N/A   Overcast
11:54 AM 64.2 °F 52.7 °F 66% 29.80 in 10.0 mi North 8.1 mph - N/A   Overcast
12:15 PM 65.5 °F 52.2 °F 62% 29.81 in 10.0 mi NW 13.8 mph 17.3 mph N/A   Overcast
12:35 PM 67.8 °F 52.5 °F 58% 29.81 in 10.0 mi NW 16.1 mph 21.9 mph N/A   Overcast
12:54 PM 66.6 °F 51.4 °F 58% 29.80 in 10.0 mi NW 11.5 mph 25.3 mph N/A   Overcast
1:15 PM 68.4 °F 52.5 °F 57% 29.80 in 10.0 mi NW 13.8 mph 19.6 mph N/A   Overcast
1:35 PM 65.8 °F 49.8 °F 56% 29.81 in 10.0 mi NW 15.0 mph 21.9 mph N/A   Overcast
1:54 PM 66.6 °F 49.3 °F 54% 29.81 in 10.0 mi NNW 15.0 mph 23.0 mph N/A   Overcast
2:15 PM 66.4 °F 48.7 °F 53% 29.82 in 10.0 mi WNW 15.0 mph 24.2 mph N/A   Overcast
2:35 PM 65.1 °F 49.5 °F 57% 29.83 in 10.0 mi NW 17.3 mph 25.3 mph N/A   Overcast
2:54 PM 64.0 °F 47.7 °F 55% 29.83 in 10.0 mi NNW 15.0 mph 21.9 mph N/A   Overcast
3:15 PM 62.6 °F 48.2 °F 59% 29.84 in 10.0 mi NW 16.1 mph 21.9 mph N/A   Overcast
3:35 PM 61.7 °F 49.1 °F 63% 29.84 in 10.0 mi NW 15.0 mph 26.5 mph N/A   Overcast
3:54 PM 61.7 °F 49.1 °F 63% 29.84 in 10.0 mi NW 16.1 mph 26.5 mph N/A   Overcast
4:15 PM 61.7 °F 48.9 °F 63% 29.85 in 10.0 mi NNW 12.7 mph 18.4 mph N/A   Overcast
4:35 PM 61.7 °F 49.1 °F 63% 29.85 in 10.0 mi NNW 17.3 mph 24.2 mph N/A   Overcast
4:54 PM 60.1 °F 46.6 °F 61% 29.86 in 10.0 mi NNW 16.1 mph 26.5 mph N/A   Overcast
5:15 PM 59.2 °F 45.9 °F 61% 29.87 in 10.0 mi NW 18.4 mph 28.8 mph N/A   Overcast
5:35 PM 61.3 °F 47.1 °F 60% 29.87 in 10.0 mi NNW 11.5 mph 21.9 mph N/A   Overcast
5:54 PM 61.3 °F 46.8 °F 59% 29.87 in 10.0 mi NW 23.0 mph 31.1 mph N/A   Overcast
6:15 PM 60.6 °F 46.6 °F 60% 29.88 in 10.0 mi NNW 17.3 mph 24.2 mph N/A   Overcast
6:34 PM 59.7 °F 45.7 °F 60% 29.88 in 10.0 mi NNW 15.0 mph 24.2 mph N/A   Overcast
6:54 PM 59.0 °F 45.5 °F 61% 29.88 in 10.0 mi NNW 17.3 mph 27.6 mph N/A   Overcast
7:15 PM 59.0 °F 46.2 °F 63% 29.88 in 10.0 mi NNW 12.7 mph 24.2 mph N/A   Overcast
7:34 PM 59.0 °F 46.4 °F 63% 29.89 in 10.0 mi NNW 12.7 mph 25.3 mph N/A   Overcast
7:55 PM 59.0 °F 46.9 °F 64% 29.90 in 10.0 mi NNW 11.5 mph 17.3 mph N/A   Overcast
8:15 PM 59.0 °F 46.8 °F 64% 29.90 in 10.0 mi North 8.1 mph 17.3 mph N/A   Overcast
8:34 PM 57.7 °F 45.5 °F 64% 29.90 in 10.0 mi North 9.2 mph 19.6 mph N/A   Overcast
8:55 PM 56.5 °F 44.6 °F 64% 29.91 in 10.0 mi North 12.7 mph 20.7 mph N/A   Overcast
9:14 PM 56.5 °F 44.6 °F 64% 29.91 in 10.0 mi NNW 8.1 mph - N/A   Overcast
9:35 PM 56.5 °F 44.4 °F 64% 29.91 in 10.0 mi North 10.4 mph - N/A   Overcast
9:55 PM 56.5 °F 44.8 °F 65% 29.91 in 10.0 mi North 6.9 mph - N/A   Scattered Clouds
10:14 PM 56.5 °F 45.5 °F 67% 29.92 in 10.0 mi North 5.8 mph - N/A   Clear
10:35 PM 54.1 °F 43.9 °F 68% 29.93 in 10.0 mi North 5.8 mph - N/A   Clear
10:55 PM 54.0 °F 44.8 °F 71% 29.93 in 10.0 mi NNW 4.6 mph - N/A   Clear
11:14 PM 52.3 °F 44.1 °F 73% 29.94 in 10.0 mi NNW 3.5 mph - N/A   Clear
11:35 PM 52.2 °F 43.9 °F 73% 29.94 in 10.0 mi Calm Calm - N/A   Clear
11:55 PM 51.4 °F 44.8 °F 78% 29.95 in 10.0 mi Calm Calm - N/A   Clear